Vertical_Velocity
0 3 -2 3 -1 -1 2 2 5 4 4 2 5 3 1 1 -1 0 2 0 -2 -1 -1 -2 -2 1 -1
-4 6 -3 12 0 -1 3 3 9 6 -0 3 4 6 -3 3 1 3 2 3 -2 1 -0 -1 0 0 1
2 -1 -0 4 2 2 -2 3 5 10 6 2 7 2 -1 5 2 4 2 2 0 -2 1 -2 -3 -1 2
-1 -4 5 6 -1 6 -0 3 1 6 6 5 6 7 7 -0 1 1 6 5 3 1 -1 -1 -1 -1 -4
2 -1 -3 2 6 2 -4 1 -1 -1 10 -3 -2 0 1 3 2 6 2 1 2 4 0 -2 -2 1 2
6 4 4 12 3 -4 -4 -4 -26 20 -10 3 -6 12 5 -2 3 5 7 -2 -0 3 1 -1 -1 0 -0
2 10 4 2 6 2 -6 -6 -4 -3 -10 -8 -11 -11 -9 -13 -10 -9 -2 0 0 -2 -1 3 1 -1 -1
-3 -5 3 -3 -6 -4 -8 -12 -8 -4 -3 -4 1 1 -2 -3 -3 2 3 0 -4 -5 -1 -0 0 1 -2
-7 -7 -3 -5 -2 -5 -6 -6 -5 6 4 -6 6 -0 2 -3 -1 -1 -1 -2 1 1 0 0 -1 -1 -2
1 -6 2 5 2 -5 0 -3 -3 -7 14 -13 -1 -2 -12 6 4 5 3 -0 -2 -3 0 3 -0 -2 -0
2 2 0 1 1 -1 -1 -3 -7 -8 -7 -5 -1 -5 -4 -7 4 5 2 6 3 -1 1 2 1 2 4
2 -0 1 1 2 4 2 0 -3 -7 5 1 -8 6 1 -5 -6 3 4 4 4 4 6 5 6 6 5
3 4 1 2 2 1 4 1 1 2 -6 -2 -5 -0 3 -5 -12 4 1 8 12 13 8 5 12 2 10
-1 -0 2 2 1 -3 5 5 -1 18 6 8 6 5 1 3 5 4 6 5 37 8 16 7 -0 3 -6
-1 2 6 6 7 7 7 7 -1 4 16 18 14 8 0 6 1 16 18 -0 17 9 -3 -6 34 10 8
-1 1 6 5 3 2 -4 -4 -5 1 -2 -4 6 -0 -3 -2 9 4 6 21 6 8 14 2 9 1 15
-1 3 2 1 -3 -1 -3 -8 0 -5 2 -2 -0 -0 -4 -3 8 9 2 -0 30 -9 16 13 1 9 6
Height
5732 5734 5736 5737 5738 5737 5737 5737 5737 5736 5733 5733 5732 5731 5730 5728 5728 5727 5728 5728 5726 5724 5722 5721 5721 5720 5719
5718 5722 5724 5725 5724 5724 5725 5726 5725 5724 5722 5719 5719 5717 5715 5715 5714 5714 5714 5714 5713 5713 5711 5710 5710 5710 5708
5706 5708 5709 5710 5711 5712 5711 5712 5713 5711 5709 5708 5706 5703 5702 5703 5701 5701 5703 5702 5701 5699 5699 5699 5699 5698 5698
5693 5693 5698 5699 5698 5698 5699 5699 5700 5698 5696 5693 5691 5690 5690 5688 5688 5689 5691 5690 5690 5688 5687 5687 5688 5687 5687
5680 5681 5685 5685 5686 5685 5686 5686 5683 5683 5683 5679 5675 5678 5677 5674 5675 5677 5678 5678 5678 5677 5675 5674 5674 5675 5675
5668 5672 5673 5675 5673 5671 5670 5671 5671 5670 5664 5666 5662 5663 5662 5661 5662 5663 5665 5665 5664 5663 5662 5661 5661 5663 5664
5657 5658 5658 5658 5658 5657 5654 5653 5656 5655 5653 5654 5651 5652 5651 5651 5651 5651 5653 5653 5651 5650 5650 5650 5649 5650 5650
5645 5646 5646 5645 5645 5646 5646 5646 5646 5645 5644 5644 5641 5641 5638 5638 5637 5637 5637 5639 5639 5638 5636 5636 5636 5636 5635
5636 5638 5638 5636 5632 5632 5631 5630 5630 5630 5628 5626 5627 5625 5624 5625 5625 5624 5623 5623 5622 5621 5623 5623 5623 5621 5621
5625 5627 5626 5624 5623 5620 5618 5616 5615 5613 5613 5608 5607 5606 5605 5608 5607 5605 5605 5606 5605 5605 5605 5606 5606 5607 5607
5618 5617 5617 5615 5613 5610 5606 5602 5599 5596 5591 5586 5588 5586 5583 5583 5585 5586 5584 5583 5583 5584 5585 5586 5587 5589 5589
5609 5607 5605 5602 5598 5594 5590 5586 5581 5577 5573 5564 5559 5556 5552 5553 5554 5559 5560 5560 5559 5561 5563 5565 5567 5569 5572
5594 5592 5589 5586 5581 5577 5572 5567 5562 5554 5546 5537 5527 5522 5515 5513 5515 5521 5523 5528 5530 5533 5535 5539 5544 5549 5552
5580 5576 5571 5566 5560 5553 5547 5539 5532 5522 5508 5495 5484 5476 5472 5471 5471 5477 5485 5490 5497 5501 5510 5512 5518 5527 5532
5562 5558 5553 5548 5541 5532 5522 5512 5501 5490 5477 5457 5441 5427 5419 5423 5427 5436 5445 5458 5467 5473 5481 5490 5492 5501 5508
5544 5538 5532 5523 5514 5500 5485 5469 5451 5431 5412 5397 5386 5375 5371 5374 5379 5388 5404 5422 5438 5451 5455 5462 5471 5480 5487
5525 5518 5509 5497 5484 5469 5453 5434 5413 5392 5375 5359 5348 5337 5331 5333 5342 5354 5371 5386 5409 5429 5433 5442 5451 5458 5468